This is the latest recevied weather packets stored in our database for station/object C31FR-13. If no packets are shown the sender has not sent any weather packets the latest 10 day(s).
| Time | Temp. | Humidity | Pressure | Rain* | Wind** | Luminosity | Snow |
|---|---|---|---|---|---|---|---|
| 1777704663 | 12.22° C | 85% | 1023.9 hPa | - | - | - | - |
| 1777704363 | 12.22° C | 85% | 1023.8 hPa | - | - | - | - |
| 1777704063 | 12.22° C | 86% | 1023.8 hPa | - | - | - | - |
| 1777703762 | 12.22° C | 84% | 1023.8 hPa | - | - | - | - |
| 1777703462 | 12.22° C | 84% | 1023.8 hPa | - | - | - | - |
| 1777703162 | 12.22° C | 86% | 1023.8 hPa | - | - | - | - |
| 1777702863 | 12.78° C | 81% | 1023.8 hPa | - | - | - | - |
| 1777702563 | 12.22° C | 84% | 1023.7 hPa | - | - | - | - |
| 1777702263 | 12.22° C | 83% | 1023.8 hPa | - | - | - | - |
| 1777701962 | 12.78° C | 85% | 1023.7 hPa | - | - | - | - |
| 1777701363 | 12.22° C | 86% | 1023.9 hPa | - | - | - | - |
| 1777701063 | 12.22° C | 85% | 1023.9 hPa | - | - | - | - |
| 1777700765 | 12.22° C | 82% | 1023.8 hPa | - | - | - | - |
| 1777700463 | 12.78° C | 81% | 1023.8 hPa | - | - | - | - |
| 1777699863 | 12.78° C | 79% | 1023.7 hPa | - | - | - | - |
| 1777699563 | 12.22° C | 80% | 1023.7 hPa | - | - | - | - |
| 1777699263 | 12.78° C | 80% | 1023.6 hPa | - | - | - | - |
| 1777698962 | 12.78° C | 79% | 1023.6 hPa | - | - | - | - |
| 1777698663 | 12.22° C | 80% | 1023.7 hPa | - | - | - | - |
| 1777698362 | 12.78° C | 78% | 1023.7 hPa | - | - | - | - |
| 1777698062 | 12.78° C | 77% | 1023.7 hPa | - | - | - | - |
| 1777697762 | 13.33° C | 77% | 1023.7 hPa | - | - | - | - |
| 1777697463 | 12.78° C | 79% | 1023.7 hPa | - | - | - | - |
| 1777697162 | 12.78° C | 77% | 1023.6 hPa | - | - | - | - |
| 1777696862 | 12.78° C | 77% | 1023.6 hPa | - | - | - | - |
* Rain since midnight (hover to see other rain measurements)
** Current wind speed in m/s (hover to see current wind gust speed)